This is the latest recevied weather packets stored in our database for station/object KK6MIG-13. If no packets are shown the sender has not sent any weather packets the latest 1 day(s).
| Time | Temp. | Humidity | Pressure | Rain* | Wind** | Luminosity | Snow |
|---|---|---|---|---|---|---|---|
| 1778025397 | 15.56° C | 1% | 1014.4 hPa | 0 mm | 4.02 m/s, 233° | 482 W/m² | - |
| 1778025338 | 15° C | 1% | 1014.4 hPa | 0 mm | 4.02 m/s, 222° | 482 W/m² | - |
| 1778025278 | 15° C | 1% | 1014.4 hPa | 0 mm | 4.02 m/s, 271° | 482 W/m² | - |
| 1778025218 | 15° C | 1% | 1014.4 hPa | 0 mm | 3.58 m/s, 293° | 515 W/m² | - |
| 1778025157 | 15° C | 1% | 1014.4 hPa | 0 mm | 3.58 m/s, 217° | 469 W/m² | - |
| 1778025105 | 15° C | 1% | 1014.4 hPa | 0 mm | 4.02 m/s, 265° | 448 W/m² | - |
| 1778025036 | 15° C | 1% | 1014.4 hPa | 0 mm | 4.02 m/s, 238° | 476 W/m² | - |
| 1778024912 | 15.56° C | 1% | 1014.4 hPa | 0 mm | 4.02 m/s, 234° | 455 W/m² | - |
| 1778024852 | 15° C | 1% | 1014.4 hPa | 0 mm | 4.02 m/s, 231° | 439 W/m² | - |
| 1778024791 | 15° C | 1% | 1014.4 hPa | 0 mm | 4.02 m/s, 272° | 424 W/m² | - |
| 1778024733 | 15° C | 1% | 1014.4 hPa | 0 mm | 4.02 m/s, 237° | 388 W/m² | - |
| 1778024729 | 15.56° C | 1% | 1014.4 hPa | 0 mm | 4.02 m/s, 234° | 410 W/m² | - |
| 1778024606 | 15° C | 1% | 1014.5 hPa | 0 mm | 4.02 m/s, 234° | 411 W/m² | - |
| 1778024546 | 15° C | 1% | 1014.4 hPa | 0 mm | 4.02 m/s, 227° | 457 W/m² | - |
| 1778024484 | 15° C | 1% | 1014.5 hPa | 0 mm | 4.02 m/s, 246° | 434 W/m² | - |
| 1778024428 | 15° C | 1% | 1014.4 hPa | 0 mm | 3.58 m/s, 236° | 383 W/m² | - |
| 1778024423 | 15° C | 1% | 1014.4 hPa | 0 mm | 3.58 m/s, 227° | 403 W/m² | - |
| 1778024300 | 15° C | 1% | 1014.5 hPa | 0 mm | 4.02 m/s, 277° | 376 W/m² | - |
| 1778024240 | 15° C | 1% | 1014.5 hPa | 0 mm | 4.02 m/s, 233° | 371 W/m² | - |
| 1778024179 | 15° C | 1% | 1014.5 hPa | 0 mm | 4.47 m/s, 234° | 373 W/m² | - |
| 1778024122 | 15° C | 1% | 1014.5 hPa | 0 mm | 4.47 m/s, 240° | 373 W/m² | - |
| 1778024117 | 15° C | 1% | 1014.5 hPa | 0 mm | 4.47 m/s, 246° | 373 W/m² | - |
| 1778023994 | 15° C | 1% | 1014.5 hPa | 0 mm | 4.47 m/s, 259° | 373 W/m² | - |
| 1778023934 | 15° C | 1% | 1014.5 hPa | 0 mm | 4.47 m/s, 281° | 371 W/m² | - |
| 1778023872 | 15° C | 1% | 1014.5 hPa | 0 mm | 4.92 m/s, 225° | 366 W/m² | - |
* Rain latest hour (hover to see other rain measurements)
** Current wind speed in m/s (hover to see current wind gust speed)